Regional Weather Roundup
Issued by NWS Little Rock, AR

Home | Current Version | Previous Version | Graphics & Text | Print | Product List | Glossary Off
Versions: 1 2 3 4 5 6 7 8 9 10 11 12 13 14 15 16 17 18 19 20 21 22 23 24 25 26 27

000
ASUS44 KLZK 061505
RWRLZK

WEATHER ROUNDUP FOR ARKANSAS
NATIONAL WEATHER SERVICE LITTLE ROCK AR
1000 AM CDT FRI MAY 06 2016

NOTE: "FAIR" INDICATES FEW OR NO CLOUDS BELOW 12,000 FEET WITH NO
SIGNIFICANT WEATHER AND/OR OBSTRUCTIONS TO VISIBILITY.

ARZ001-003-010-029-061600-
NORTHWEST ARKANSAS

CITY           SKY/WX    TMP DP  RH WIND       PRES   REMARKS
FAYETTEVILLE   SUNNY     64  47  53 S5        30.15R
FORT SMITH     SUNNY     63  46  54 E5        30.16R
HARRISON       SUNNY     65  44  46 S5        30.13S
BENTONVILLE    SUNNY     64  39  39 S5        30.15S
ROGERS         SUNNY     67  44  43 S5        30.15R
SILOAM SPGS    SUNNY     64  45  48 SW7       30.16R
HIGHFILL       SUNNY     65  47  52 SW6       30.14R
SPRINGDALE     SUNNY     63  45  51 S3        30.16R
$$

ARZ004-005-016-061600-
NORTH CENTRAL ARKANSAS

CITY           SKY/WX    TMP DP  RH WIND       PRES   REMARKS
BATESVILLE     SUNNY     64  48  55 CALM      30.13S
FLIPPIN        SUNNY    N/A N/A N/A W6        30.10F
MTN HOME       SUNNY     60  44  55 SW3       30.12S
$$

ARZ040-041-061600-
WEST CENTRAL ARKANSAS

CITY           SKY/WX    TMP DP  RH WIND       PRES   REMARKS
MENA           SUNNY     64  50  59 CALM      30.16F
MOUNT IDA      SUNNY     64  48  56 CALM      30.14R
$$

ARZ009-017-025-026-028-061600-
NORTHEAST ARKANSAS

CITY           SKY/WX    TMP DP  RH WIND       PRES   REMARKS
CORNING          N/A     63  48  59 NW8       30.12S
JONESBORO      SUNNY     64  47  53 W8        30.12R
NEWPORT        SUNNY     66  46  48 W6        30.14R
WALNUT RIDGE   SUNNY     63  46  55 W3        30.12S
BLYTHEVILLE    SUNNY     67  50  54 NW10      30.11R
NW BLYTHEVILLE SUNNY     64  48  55 NW8       30.10S
$$

ARZ022-023-033-042-044-061600-
CENTRAL ARKANSAS

CITY           SKY/WX    TMP DP  RH WIND       PRES   REMARKS
LITTLE ROCK    SUNNY     66  44  45 CALM      30.14R
N LITTLE ROCK    N/A     66  44  45 S3        30.13R
JACKSONVILLE   SUNNY     66  46  48 E2        30.12R
SEARCY         SUNNY     64  48  55 SE3       30.14S
HOT SPRINGS    SUNNY     63  47  55 SW6       30.16R
RUSSELLVILLE   SUNNY     63  48  58 W3        30.15R
CLINTON        FAIR      63  46  55 CALM      30.14F
$$

ARZ036-061600-
EAST ARKANSAS

CITY           SKY/WX    TMP DP  RH WIND       PRES   REMARKS
WEST MEMPHIS   SUNNY     63  50  62 NW7       30.11R
$$

ARZ050-053-066-070-073-061600-
SOUTHWEST ARKANSAS

CITY           SKY/WX    TMP DP  RH WIND       PRES   REMARKS
ARKADELPHIA    FAIR      64  51  62 CALM      30.17R
CAMDEN         SUNNY     64  46  52 CALM      30.16R
TEXARKANA      SUNNY     64  50  60 NE6       30.14R
EL DORADO      SUNNY     65  48  54 E5        30.15R
DE QUEEN       SUNNY     64  50  60 VRB6      30.14S
$$

ARZ056-057-069-061600-
SOUTHEAST ARKANSAS

CITY           SKY/WX    TMP DP  RH WIND       PRES   REMARKS
PINE BLUFF     SUNNY     64  47  53 SE6       30.13R
STUTTGART      SUNNY     64  45  48 CALM      30.13R
MONTICELLO     SUNNY     65  47  52 E6        30.13R

$$






USA.gov is the U.S. government's official web portal to all federal, state and local government web resources and services.